Weather History for KW29 - November, 2011

Change the Weather History Date:

Monday, November 14, 2011

  Actual Average (KBWI) Record (KBWI)
Temperature  
Mean Temperature 64 °F 47 °F  
Max Temperature 73 °F 57 °F 77 °F (1989)
Min Temperature 55 °F 37 °F 18 °F (1986)
Degree Days  
Heating Degree Days 1 18  
Month to date heating degree days 223  
Since 1 July heating degree days 570  
Cooling Degree Days 0 0  
Month to date cooling degree days 0  
Year to date cooling degree days 1163  
Growing Degree Days 14 (Base 50)    
Moisture  
Dew Point 48 °F    
Average Humidity 59    
Maximum Humidity 72    
Minimum Humidity 44    
Precipitation  
Precipitation 0.00 in 0.11 in 1.92 in (1940)
Month to date precipitation 1.51  
Year to date precipitation 36.72  
Snow  
Snow 0.00 in 0.00 in 3.60 in (1908)
Month to date snowfall 0.1  
Since 1 July snowfall 0.1  
Snow Depth -    
Sea Level Pressure  
Sea Level Pressure 29.94 in    
Wind  
Wind Speed 10 mph (SSW)    
Max Wind Speed 13 mph    
Max Gust Speed 22 mph    
Visibility 10 miles    
Events      
T = Trace of Precipitation, MM = Missing Value Source: NWS Daily Summary

Daily Weather History Graph

Daily Weather History Graph

Search for Another Location

Airport or City:

Trip Planner

Search our weather history database for the weather conditions in past years. The results will help you decide how hot, cold, wet, or windy it might be!

Date:

Astronomy

Nov. 14, 2011 Rise Set
Actual Time 6:46 AM EST 4:52 PM EST
Civil Twilight 6:18 AM EST 5:20 PM EST
Nautical Twilight 5:46 AM EST 5:52 PM EST
Astronomical Twilight 5:14 AM EST 6:24 PM EST
Moon 7:57 PM EST (11/14) 10:02 AM EST (11/14)
Length of Visible Light 11h 02m
Length of Day
10h 05m
Waning Gibbous, 87% of the Moon is Illuminated
Nov 14
Waning Gibbous
Nov 18
Last Quarter
Nov 25
New
Dec 2
First Quarter
Dec 10
Full

Hourly Weather History & Observations

Time (EST) Temp. Dew Point Humidity Pressure Visibility Wind Dir Wind Speed Gust Speed Precip Events Conditions
12:18 AM 57.2 °F 41.0 °F 55% 30.03 in 10.0 mi SSW 12.7 mph 18.4 mph N/A   Clear
12:38 AM 57.2 °F 42.8 °F 59% 30.02 in 10.0 mi SSW 8.1 mph 16.1 mph N/A   Clear
12:57 AM 55.4 °F 42.8 °F 63% 30.02 in 10.0 mi SSW 9.2 mph - N/A   Clear
1:16 AM 55.4 °F 42.8 °F 63% 30.02 in 10.0 mi South 10.4 mph 18.4 mph N/A   Clear
1:36 AM 55.4 °F 42.8 °F 63% 30.01 in 10.0 mi South 10.4 mph 17.3 mph N/A   Clear
1:55 AM 55.4 °F 42.8 °F 63% 30.01 in 10.0 mi South 12.7 mph - N/A   Clear
2:14 AM 55.4 °F 42.8 °F 63% 30.01 in 10.0 mi SSW 11.5 mph - N/A   Clear
2:34 AM 55.4 °F 42.8 °F 63% 30.00 in 10.0 mi South 9.2 mph - N/A   Clear
2:53 AM 55.4 °F 42.8 °F 63% 30.00 in 10.0 mi South 9.2 mph - N/A   Clear
3:12 AM 55.4 °F 42.8 °F 63% 30.00 in 10.0 mi South 10.4 mph - N/A   Clear
3:32 AM 55.4 °F 44.6 °F 67% 29.99 in 10.0 mi South 9.2 mph - N/A   Clear
3:51 AM 55.4 °F 44.6 °F 67% 29.99 in 10.0 mi South 9.2 mph 16.1 mph N/A   Clear
4:10 AM 55.4 °F 44.6 °F 67% 29.99 in 10.0 mi South 10.4 mph - N/A   Clear
4:30 AM 55.4 °F 46.4 °F 72% 29.99 in 10.0 mi South 9.2 mph - N/A   Clear
4:49 AM 55.4 °F 46.4 °F 72% 29.99 in 10.0 mi South 8.1 mph - N/A   Clear
5:08 AM 55.4 °F 46.4 °F 72% 29.99 in 10.0 mi South 8.1 mph - N/A   Clear
5:28 AM 55.4 °F 46.4 °F 72% 29.99 in 10.0 mi SSW 8.1 mph - N/A   Clear
5:47 AM 55.4 °F 46.4 °F 72% 29.98 in 10.0 mi South 8.1 mph - N/A   Clear
6:06 AM 55.4 °F 46.4 °F 72% 29.98 in 10.0 mi SSW 9.2 mph - N/A   Clear
6:45 AM 55.4 °F 46.4 °F 72% 29.99 in 10.0 mi South 6.9 mph - N/A   Clear
7:04 AM 55.4 °F 46.4 °F 72% 29.98 in 10.0 mi South 6.9 mph - N/A   Clear
7:23 AM 55.4 °F 46.4 °F 72% 29.99 in 10.0 mi SSW 6.9 mph - N/A   Clear
7:43 AM 55.4 °F 46.4 °F 72% 29.99 in 10.0 mi South 9.2 mph - N/A   Clear
8:02 AM 57.2 °F 48.2 °F 72% 29.99 in 10.0 mi SSW 6.9 mph - N/A   Clear
8:21 AM 59.0 °F 48.2 °F 67% 29.99 in 10.0 mi SSW 5.8 mph - N/A   Clear
8:40 AM 59.0 °F 48.2 °F 67% 29.99 in 10.0 mi SSW 9.2 mph - N/A   Clear
9:00 AM 59.0 °F 48.2 °F 67% 29.98 in 10.0 mi South 8.1 mph - N/A   Clear
9:19 AM 60.8 °F 48.2 °F 63% 29.98 in 10.0 mi South 6.9 mph - N/A   Clear
9:38 AM 62.6 °F 48.2 °F 59% 29.98 in 10.0 mi SSW 5.8 mph - N/A   Clear
9:58 AM 62.6 °F 48.2 °F 59% 29.97 in 10.0 mi SSW 9.2 mph 16.1 mph N/A   Clear
10:17 AM 64.4 °F 48.2 °F 56% 29.96 in 10.0 mi SSW 4.6 mph - N/A   Clear
10:36 AM 64.4 °F 50.0 °F 59% 29.96 in 10.0 mi SSW 6.9 mph - N/A   Clear
10:56 AM 66.2 °F 50.0 °F 56% 29.96 in 10.0 mi SSW 5.8 mph - N/A   Clear
11:15 AM 68.0 °F 50.0 °F 52% 29.95 in 10.0 mi South 8.1 mph - N/A   Clear
11:34 AM 68.0 °F 50.0 °F 52% 29.94 in 10.0 mi SSW 6.9 mph - N/A   Clear
11:53 AM 69.8 °F 50.0 °F 49% 29.93 in 10.0 mi South 6.9 mph - N/A   Clear
12:13 PM 69.8 °F 50.0 °F 49% 29.91 in 10.0 mi South 6.9 mph - N/A   Clear
12:32 PM 69.8 °F 50.0 °F 49% 29.90 in 10.0 mi South 11.5 mph 17.3 mph N/A   Clear
12:51 PM 71.6 °F 50.0 °F 46% 29.89 in 10.0 mi South 10.4 mph 16.1 mph N/A   Clear
1:11 PM 71.6 °F 50.0 °F 46% 29.88 in 10.0 mi South 9.2 mph - N/A   Clear
1:49 PM 71.6 °F 50.0 °F 46% 29.87 in 10.0 mi South 11.5 mph 17.3 mph N/A   Clear
2:09 PM 71.6 °F 50.0 °F 46% 29.86 in 10.0 mi SSW 12.7 mph 17.3 mph N/A   Clear
2:28 PM 73.4 °F 50.0 °F 44% 29.84 in 10.0 mi SSW 11.5 mph 17.3 mph N/A   Clear
2:47 PM 71.6 °F 50.0 °F 46% 29.84 in 10.0 mi SSW 10.4 mph 21.9 mph N/A   Clear
3:06 PM 71.6 °F 50.0 °F 46% 29.84 in 10.0 mi South 9.2 mph 18.4 mph N/A   Clear
3:26 PM 71.6 °F 50.0 °F 46% 29.84 in 10.0 mi SSW 10.4 mph - N/A   Clear
3:45 PM 71.6 °F 50.0 °F 46% 29.84 in 10.0 mi South 9.2 mph - N/A   Clear
4:04 PM 69.8 °F 50.0 °F 49% 29.84 in 10.0 mi SSW 8.1 mph - N/A   Clear
4:23 PM 69.8 °F 50.0 °F 49% 29.84 in 10.0 mi South 10.4 mph - N/A   Clear
5:02 PM 64.4 °F 51.8 °F 64% 29.84 in 10.0 mi South 8.1 mph - N/A   Clear
5:21 PM 66.2 °F 50.0 °F 56% 29.84 in 10.0 mi South 8.1 mph - N/A   Clear
5:41 PM 68.0 °F 50.0 °F 52% 29.84 in 10.0 mi South 12.7 mph 18.4 mph N/A   Clear
6:00 PM 66.2 °F 50.0 °F 56% 29.84 in 10.0 mi South 9.2 mph - N/A   Clear
6:19 PM 68.0 °F 50.0 °F 52% 29.83 in 10.0 mi South 9.2 mph 16.1 mph N/A   Clear
6:38 PM 68.0 °F 50.0 °F 52% 29.83 in 10.0 mi South 11.5 mph 18.4 mph N/A   Clear
6:58 PM 68.0 °F 50.0 °F 52% 29.84 in 10.0 mi South 12.7 mph - N/A   Clear
7:17 PM 66.2 °F 51.8 °F 60% 29.84 in 10.0 mi South 13.8 mph 20.7 mph N/A   Clear
7:36 PM 66.2 °F 51.8 °F 60% 29.83 in 10.0 mi South 12.7 mph 18.4 mph N/A   Clear
7:55 PM 66.2 °F 51.8 °F 60% 29.83 in 10.0 mi South 12.7 mph 21.9 mph N/A   Clear
8:15 PM 64.4 °F 51.8 °F 64% 29.83 in 10.0 mi South 12.7 mph 19.6 mph N/A   Clear
8:34 PM 64.4 °F 51.8 °F 64% 29.82 in 10.0 mi South 13.8 mph 20.7 mph N/A   Clear
8:53 PM 64.4 °F 51.8 °F 64% 29.82 in 10.0 mi SSW 11.5 mph 17.3 mph N/A   Clear
9:12 PM 66.2 °F 51.8 °F 60% 29.82 in 10.0 mi South 11.5 mph 21.9 mph N/A   Clear
9:32 PM 66.2 °F 51.8 °F 60% 29.82 in 10.0 mi SSW 11.5 mph 18.4 mph N/A   Clear
9:51 PM 66.2 °F 51.8 °F 60% 29.82 in 10.0 mi SSW 10.4 mph 17.3 mph N/A   Clear
10:10 PM 66.2 °F 51.8 °F 60% 29.82 in 10.0 mi SSW 10.4 mph 19.6 mph N/A   Clear
10:49 PM 64.4 °F 51.8 °F 64% 29.82 in 10.0 mi SSW 11.5 mph 18.4 mph N/A   Clear
11:08 PM 64.4 °F 51.8 °F 64% 29.81 in 10.0 mi SSW 9.2 mph - N/A   Clear
11:28 PM 64.4 °F 51.8 °F 64% 29.83 in 10.0 mi South 9.2 mph - N/A   Clear
11:47 PM 64.4 °F 51.8 °F 64% 29.83 in 10.0 mi South 9.2 mph - N/A   Clear